Time,TemperatureF,DewpointF,PressureIn,WindDirection,WindDirectionDegrees,WindSpeedMPH,WindSpeedGustMPH,Humidity,HourlyPrecipIn,Conditions,Clouds,dailyrainin,SoftwareType,DateUTC
2013-06-06 00:01:00,67.9,55.3,29.41,ENE,75,0.0,0.0,64,0.00,CLR,,0.00,WeatherDisplay:10.37,2013-06-06 04:01:00,
2013-06-06 00:02:00,67.9,55.3,29.41,ENE,75,0.0,0.0,64,0.00,CLR,,0.00,WeatherDisplay:10.37,2013-06-06 04:02:00,
2013-06-06 00:07:00,67.8,55.2,29.41,ENE,75,0.0,0.0,64,0.00,CLR,,0.00,WeatherDisplay:10.37,2013-06-06 04:07:00,
2013-06-06 00:12:00,67.6,55.4,29.41,ENE,75,0.0,0.0,65,0.00,CLR,,0.00,WeatherDisplay:10.37,2013-06-06 04:12:00,
2013-06-06 00:17:00,67.3,55.5,29.41,East,89,0.0,0.0,66,0.00,CLR,,0.00,WeatherDisplay:10.37,2013-06-06 04:17:00,
2013-06-06 00:22:00,67.1,55.4,29.41,East,90,0.0,0.0,66,0.00,CLR,,0.00,WeatherDisplay:10.37,2013-06-06 04:22:00,
2013-06-06 00:27:00,66.9,55.2,29.41,SE,137,1.1,0.0,66,0.00,CLR,,0.00,WeatherDisplay:10.37,2013-06-06 04:27:00,
2013-06-06 00:32:00,66.8,55.1,29.41,SE,136,0.0,0.0,66,0.00,CLR,,0.00,WeatherDisplay:10.37,2013-06-06 04:32:00,
2013-06-06 00:37:00,66.6,55.3,29.41,East,96,0.0,0.0,67,0.00,CLR,,0.00,WeatherDisplay:10.37,2013-06-06 04:37:00,
2013-06-06 00:42:00,66.4,55.5,29.40,East,97,0.0,0.1,68,0.00,CLR,,0.00,WeatherDisplay:10.37,2013-06-06 04:42:00,
2013-06-06 00:47:00,66.3,55.4,29.40,ESE,104,2.3,0.0,68,0.00,CLR,,0.00,WeatherDisplay:10.37,2013-06-06 04:47:00,
2013-06-06 00:52:00,66.1,55.6,29.40,East,99,1.1,0.0,69,0.00,CLR,,0.00,WeatherDisplay:10.37,2013-06-06 04:52:00,
2013-06-06 00:57:00,65.8,55.3,29.40,East,99,0.0,0.0,69,0.00,CLR,,0.00,WeatherDisplay:10.37,2013-06-06 04:57:00,
2013-06-06 01:02:00,65.8,55.7,29.40,East,99,0.0,0.0,70,0.00,CLR,,0.00,WeatherDisplay:10.37,2013-06-06 05:02:00,
2013-06-06 01:07:00,65.6,55.5,29.40,ESE,116,3.5,0.0,70,0.00,CLR,,0.00,WeatherDisplay:10.37,2013-06-06 05:07:00,
2013-06-06 01:12:00,65.6,55.5,29.40,East,86,0.0,0.0,70,0.00,CLR,,0.00,WeatherDisplay:10.37,2013-06-06 05:12:00,
2013-06-06 01:17:00,65.6,55.9,29.40,SE,124,1.1,0.0,71,0.00,CLR,,0.00,WeatherDisplay:10.37,2013-06-06 05:17:00,
2013-06-06 01:22:00,65.5,55.8,29.40,ESE,102,0.0,0.0,71,0.00,CLR,,0.00,WeatherDisplay:10.37,2013-06-06 05:22:00,
2013-06-06 01:27:00,65.5,56.2,29.39,ESE,102,0.0,0.0,72,0.00,CLR,,0.00,WeatherDisplay:10.37,2013-06-06 05:27:00,
2013-06-06 01:32:00,65.2,56.3,29.39,ESE,102,0.0,0.0,73,0.00,CLR,,0.00,WeatherDisplay:10.37,2013-06-06 05:32:00,
2013-06-06 01:37:00,65.0,56.1,29.39,East,100,0.0,0.0,73,0.00,CLR,,0.00,WeatherDisplay:10.37,2013-06-06 05:37:00,
2013-06-06 01:42:00,65.0,56.5,29.38,East,100,0.0,0.0,74,0.00,CLR,,0.00,WeatherDisplay:10.37,2013-06-06 05:42:00,
2013-06-06 01:47:00,64.7,56.2,29.38,East,97,0.0,0.0,74,0.00,CLR,,0.00,WeatherDisplay:10.37,2013-06-06 05:47:00,
2013-06-06 01:52:00,64.7,56.6,29.38,East,97,0.0,0.0,75,0.00,CLR,,0.00,WeatherDisplay:10.37,2013-06-06 05:52:00,
2013-06-06 01:57:00,64.5,56.8,29.38,East,100,0.0,0.0,76,0.00,CLR,,0.00,WeatherDisplay:10.37,2013-06-06 05:57:00,
2013-06-06 02:02:00,64.5,56.8,29.38,East,100,0.0,0.0,76,0.00,CLR,,0.00,WeatherDisplay:10.37,2013-06-06 06:02:00,
2013-06-06 02:07:00,64.5,57.1,29.38,East,89,0.0,0.0,77,0.00,CLR,,0.00,WeatherDisplay:10.37,2013-06-06 06:07:00,
2013-06-06 02:12:00,64.5,57.1,29.38,East,89,0.0,0.0,77,0.00,CLR,,0.00,WeatherDisplay:10.37,2013-06-06 06:12:00,
2013-06-06 02:17:00,64.3,57.3,29.38,ENE,72,1.1,0.0,78,0.00,CLR,,0.00,WeatherDisplay:10.37,2013-06-06 06:17:00,
2013-06-06 02:22:00,64.3,57.3,29.38,ESE,110,4.6,4.6,78,0.00,CLR,,0.00,WeatherDisplay:10.37,2013-06-06 06:22:00,
2013-06-06 02:27:00,64.3,57.6,29.37,ESE,109,0.0,0.0,79,0.00,CLR,,0.00,WeatherDisplay:10.37,2013-06-06 06:27:00,
2013-06-06 02:32:00,64.2,57.9,29.37,ESE,107,3.5,3.5,80,0.00,CLR,,0.00,WeatherDisplay:10.37,2013-06-06 06:32:00,
2013-06-06 02:37:00,64.2,57.9,29.37,South,176,0.0,0.0,80,0.00,CLR,,0.00,WeatherDisplay:10.37,2013-06-06 06:37:00,
2013-06-06 02:42:00,64.2,57.9,29.37,ENE,59,0.0,0.0,80,0.00,CLR,,0.00,WeatherDisplay:10.37,2013-06-06 06:42:00,
2013-06-06 02:47:00,64.0,57.7,29.37,ENE,59,0.0,0.0,80,0.00,CLR,,0.00,WeatherDisplay:10.37,2013-06-06 06:47:00,
2013-06-06 02:52:00,64.0,58.1,29.37,SE,134,0.0,0.0,81,0.00,CLR,,0.00,WeatherDisplay:10.37,2013-06-06 06:52:00,
2013-06-06 02:57:00,63.9,58.0,29.36,SE,134,0.0,0.0,81,0.00,CLR,,0.00,WeatherDisplay:10.37,2013-06-06 06:57:00,
2013-06-06 03:02:00,63.9,58.3,29.36,ESE,119,0.0,0.0,82,0.00,CLR,,0.00,WeatherDisplay:10.37,2013-06-06 07:02:00,
2013-06-06 03:07:00,63.9,58.3,29.36,SSE,148,0.0,0.0,82,0.00,CLR,,0.00,WeatherDisplay:10.37,2013-06-06 07:07:00,
2013-06-06 03:12:00,63.7,58.1,29.36,SSE,148,0.0,0.0,82,0.00,CLR,,0.00,WeatherDisplay:10.37,2013-06-06 07:12:00,
2013-06-06 03:17:00,63.7,58.4,29.36,East,80,1.1,1.1,83,0.00,CLR,,0.00,WeatherDisplay:10.37,2013-06-06 07:17:00,
2013-06-06 03:22:00,63.7,58.4,29.36,East,80,0.0,0.0,83,0.00,CLR,,0.00,WeatherDisplay:10.37,2013-06-06 07:22:00,
2013-06-06 03:27:00,63.5,58.2,29.35,East,80,0.0,0.0,83,0.00,CLR,,0.00,WeatherDisplay:10.37,2013-06-06 07:27:00,
2013-06-06 03:32:00,63.5,58.2,29.35,East,80,0.0,0.0,83,0.00,CLR,,0.00,WeatherDisplay:10.37,2013-06-06 07:32:00,
2013-06-06 03:37:00,63.5,58.6,29.35,East,86,0.0,0.0,84,0.00,CLR,,0.00,WeatherDisplay:10.37,2013-06-06 07:37:00,
2013-06-06 03:42:00,63.5,58.6,29.35,East,86,0.0,0.0,84,0.00,CLR,,0.00,WeatherDisplay:10.37,2013-06-06 07:42:00,
2013-06-06 03:47:00,63.5,58.6,29.35,East,86,1.1,0.0,84,0.00,CLR,,0.00,WeatherDisplay:10.37,2013-06-06 07:47:00,
2013-06-06 03:52:00,63.7,58.8,29.35,East,86,0.0,0.0,84,0.00,CLR,,0.00,WeatherDisplay:10.37,2013-06-06 07:52:00,
2013-06-06 03:57:00,63.7,58.8,29.35,East,97,0.0,0.0,84,0.00,CLR,,0.00,WeatherDisplay:10.37,2013-06-06 07:57:00,
2013-06-06 04:02:00,63.7,59.1,29.35,East,99,0.0,0.0,85,0.00,CLR,,0.00,WeatherDisplay:10.37,2013-06-06 08:02:00,
2013-06-06 04:07:00,63.7,59.1,29.35,East,97,0.0,0.0,85,0.00,CLR,,0.00,WeatherDisplay:10.37,2013-06-06 08:07:00,
2013-06-06 04:12:00,63.9,59.3,29.35,ESE,119,2.0,2.0,85,0.00,CLR,,0.00,WeatherDisplay:10.37,2013-06-06 08:12:00,
2013-06-06 04:17:00,63.9,59.3,29.35,ESE,123,1.1,0.0,85,0.00,CLR,,0.00,WeatherDisplay:10.37,2013-06-06 08:17:00,
2013-06-06 04:22:00,63.9,59.3,29.35,ESE,123,0.0,0.0,85,0.00,CLR,,0.00,WeatherDisplay:10.37,2013-06-06 08:22:00,
2013-06-06 04:27:00,63.9,59.3,29.34,ESE,117,0.0,0.0,85,0.00,CLR,,0.00,WeatherDisplay:10.37,2013-06-06 08:27:00,
2013-06-06 04:32:00,63.9,59.3,29.34,East,83,0.0,0.6,85,0.00,CLR,,0.00,WeatherDisplay:10.37,2013-06-06 08:32:00,
2013-06-06 04:37:00,63.9,59.3,29.34,East,83,0.0,0.0,85,0.00,CLR,,0.00,WeatherDisplay:10.37,2013-06-06 08:37:00,
2013-06-06 04:42:00,63.9,59.3,29.34,East,83,0.0,0.0,85,0.00,CLR,,0.00,WeatherDisplay:10.37,2013-06-06 08:42:00,
2013-06-06 04:47:00,63.9,59.3,29.34,East,83,0.0,0.0,85,0.00,CLR,,0.00,WeatherDisplay:10.37,2013-06-06 08:47:00,
2013-06-06 04:53:00,63.9,59.6,29.34,East,83,0.0,0.0,86,0.00,CLR,,0.00,WeatherDisplay:10.37,2013-06-06 08:53:00,
2013-06-06 04:58:00,63.9,59.6,29.34,East,85,0.0,0.0,86,0.00,CLR,,0.00,WeatherDisplay:10.37,2013-06-06 08:58:00,
2013-06-06 05:03:00,63.7,59.4,29.34,East,85,0.0,0.0,86,0.00,CLR,,0.00,WeatherDisplay:10.37,2013-06-06 09:03:00,
2013-06-06 05:08:00,63.7,59.4,29.34,East,85,0.0,0.0,86,0.00,CLR,,0.00,WeatherDisplay:10.37,2013-06-06 09:08:00,
2013-06-06 05:13:00,63.7,59.4,29.33,East,90,2.3,2.3,86,0.00,CLR,,0.00,WeatherDisplay:10.37,2013-06-06 09:13:00,
2013-06-06 05:18:00,63.7,59.4,29.33,ESE,107,0.0,0.0,86,0.00,CLR,,0.00,WeatherDisplay:10.37,2013-06-06 09:18:00,
2013-06-06 05:23:00,63.7,59.8,29.33,ESE,107,0.0,0.0,87,0.00,CLR,,0.00,WeatherDisplay:10.37,2013-06-06 09:23:00,
2013-06-06 05:28:00,63.9,60.0,29.33,ESE,107,0.0,0.0,87,0.00,CLR,,0.00,WeatherDisplay:10.37,2013-06-06 09:28:00,
2013-06-06 05:33:00,63.9,60.0,29.33,ESE,107,0.0,0.0,87,0.00,CLR,,0.00,WeatherDisplay:10.37,2013-06-06 09:33:00,
2013-06-06 05:38:00,63.9,60.0,29.33,ESE,107,0.0,0.0,87,0.00,CLR,,0.00,WeatherDisplay:10.37,2013-06-06 09:38:00,
2013-06-06 05:43:00,63.9,60.0,29.33,ESE,107,0.0,0.2,87,0.00,CLR,,0.00,WeatherDisplay:10.37,2013-06-06 09:43:00,
2013-06-06 05:48:00,63.9,60.0,29.33,East,93,0.0,0.0,87,0.00,CLR,,0.00,WeatherDisplay:10.37,2013-06-06 09:48:00,
2013-06-06 05:53:00,63.9,60.0,29.33,East,93,0.0,0.0,87,0.00,CLR,,0.00,WeatherDisplay:10.37,2013-06-06 09:53:00,
2013-06-06 05:58:00,63.9,60.0,29.33,East,93,0.0,0.0,87,0.00,CLR,,0.00,WeatherDisplay:10.37,2013-06-06 09:58:00,
2013-06-06 06:03:00,63.9,60.0,29.33,East,93,0.0,0.0,87,0.00,CLR,,0.00,WeatherDisplay:10.37,2013-06-06 10:03:00,
2013-06-06 06:08:00,63.9,60.0,29.33,East,93,0.0,0.0,87,0.00,CLR,,0.00,WeatherDisplay:10.37,2013-06-06 10:08:00,
2013-06-06 06:13:00,63.9,60.3,29.32,East,93,0.0,0.0,88,0.00,CLR,,0.00,WeatherDisplay:10.37,2013-06-06 10:13:00,
2013-06-06 06:18:00,63.9,60.3,29.32,SE,124,2.0,2.0,88,0.00,CLR,,0.00,WeatherDisplay:10.37,2013-06-06 10:18:00,
2013-06-06 06:23:00,63.9,60.3,29.32,SE,124,0.0,0.0,88,0.00,CLR,,0.00,WeatherDisplay:10.37,2013-06-06 10:23:00,
2013-06-06 06:28:00,63.9,60.3,29.32,South,188,0.0,0.0,88,0.00,CLR,,0.00,WeatherDisplay:10.37,2013-06-06 10:28:00,
2013-06-06 06:33:00,64.0,60.4,29.32,SE,124,0.0,0.0,88,0.00,CLR,,0.00,WeatherDisplay:10.37,2013-06-06 10:33:00,
2013-06-06 06:38:00,64.0,60.4,29.32,ESE,116,0.0,0.0,88,0.00,CLR,,0.00,WeatherDisplay:10.37,2013-06-06 10:38:00,
2013-06-06 06:43:00,64.2,60.6,29.32,ESE,116,0.0,0.0,88,0.00,CLR,,0.00,WeatherDisplay:10.37,2013-06-06 10:43:00,
2013-06-06 06:48:00,64.2,60.6,29.32,ESE,116,0.0,0.0,88,0.00,CLR,,0.00,WeatherDisplay:10.37,2013-06-06 10:48:00,
2013-06-06 06:53:00,64.2,60.9,29.32,ESE,116,0.0,0.0,89,0.00,CLR,,0.00,WeatherDisplay:10.37,2013-06-06 10:53:00,
2013-06-06 06:58:00,64.3,61.0,29.32,ESE,116,0.0,0.0,89,0.00,CLR,,0.00,WeatherDisplay:10.37,2013-06-06 10:58:00,
2013-06-06 07:03:00,64.3,61.0,29.32,East,93,2.3,0.0,89,0.00,CLR,,0.00,WeatherDisplay:10.37,2013-06-06 11:03:00,
2013-06-06 07:08:00,64.3,61.0,29.32,SE,130,0.0,0.0,89,0.00,CLR,,0.00,WeatherDisplay:10.37,2013-06-06 11:08:00,
2013-06-06 07:13:00,64.3,61.0,29.32,SE,128,0.0,0.0,89,0.00,CLR,,0.00,WeatherDisplay:10.37,2013-06-06 11:13:00,
2013-06-06 07:18:00,64.5,61.2,29.32,SE,128,0.0,0.0,89,0.00,CLR,,0.00,WeatherDisplay:10.37,2013-06-06 11:18:00,
2013-06-06 07:23:00,64.5,61.2,29.32,ESE,109,1.1,0.0,89,0.00,CLR,,0.00,WeatherDisplay:10.37,2013-06-06 11:23:00,
2013-06-06 07:28:00,64.7,61.4,29.33,SE,127,0.0,0.0,89,0.00,CLR,,0.00,WeatherDisplay:10.37,2013-06-06 11:28:00,
2013-06-06 07:33:00,64.7,61.4,29.33,ESE,116,0.0,0.0,89,0.00,CLR,,0.00,WeatherDisplay:10.37,2013-06-06 11:33:00,
2013-06-06 07:38:00,64.8,61.5,29.33,ESE,104,0.0,0.0,89,0.00,CLR,,0.00,WeatherDisplay:10.37,2013-06-06 11:38:00,
2013-06-06 07:43:00,64.8,61.5,29.32,West,268,0.0,0.0,89,0.00,CLR,,0.00,WeatherDisplay:10.37,2013-06-06 11:43:00,
2013-06-06 07:48:00,65.0,61.7,29.32,WSW,253,0.0,0.0,89,0.00,CLR,,0.00,WeatherDisplay:10.37,2013-06-06 11:48:00,
2013-06-06 07:53:00,65.2,62.2,29.32,WSW,244,0.0,0.0,90,0.00,CLR,,0.00,WeatherDisplay:10.37,2013-06-06 11:53:00,
2013-06-06 07:58:00,65.2,62.2,29.32,SE,126,1.0,0.0,90,0.00,CLR,,0.00,WeatherDisplay:10.37,2013-06-06 11:58:00,
2013-06-06 08:03:00,65.3,62.3,29.32,North,357,0.0,0.0,90,0.00,CLR,,0.00,WeatherDisplay:10.37,2013-06-06 12:03:00,
2013-06-06 08:08:00,65.5,62.2,29.32,East,92,0.0,0.0,89,0.00,CLR,,0.00,WeatherDisplay:10.37,2013-06-06 12:08:00,
2013-06-06 08:13:00,65.5,62.2,29.32,ESE,116,2.3,0.0,89,0.00,CLR,,0.00,WeatherDisplay:10.37,2013-06-06 12:13:00,
2013-06-06 08:18:00,65.5,62.2,29.32,ESE,113,0.0,0.8,89,0.00,CLR,,0.00,WeatherDisplay:10.37,2013-06-06 12:18:00,
2013-06-06 08:23:00,65.6,62.6,29.32,ESE,116,2.3,0.0,90,0.00,CLR,,0.00,WeatherDisplay:10.37,2013-06-06 12:23:00,
2013-06-06 08:28:00,65.8,62.8,29.32,ESE,109,2.3,0.0,90,0.00,CLR,,0.00,WeatherDisplay:10.37,2013-06-06 12:28:00,
2013-06-06 08:33:00,66.0,62.7,29.32,ESE,109,1.1,0.0,89,0.00,CLR,,0.00,WeatherDisplay:10.37,2013-06-06 12:33:00,
2013-06-06 08:38:00,66.1,62.8,29.32,ESE,119,4.6,4.6,89,0.00,CLR,,0.00,WeatherDisplay:10.37,2013-06-06 12:38:00,
2013-06-06 08:43:00,66.3,63.0,29.32,East,85,4.6,4.6,89,0.00,CLR,,0.00,WeatherDisplay:10.37,2013-06-06 12:43:00,
2013-06-06 08:48:00,66.4,63.1,29.32,East,89,1.1,1.1,89,0.00,CLR,,0.00,WeatherDisplay:10.37,2013-06-06 12:48:00,
2013-06-06 08:53:00,66.8,63.5,29.32,ESE,121,0.0,0.0,89,0.00,CLR,,0.00,WeatherDisplay:10.37,2013-06-06 12:53:00,
2013-06-06 08:58:00,66.9,63.6,29.32,ESE,119,1.1,0.0,89,0.00,CLR,,0.00,WeatherDisplay:10.37,2013-06-06 12:58:00,
2013-06-06 09:03:00,67.3,63.9,29.32,NNE,20,2.3,2.3,89,0.00,CLR,,0.00,WeatherDisplay:10.37,2013-06-06 13:03:00,
2013-06-06 09:08:00,67.6,63.9,29.32,SE,124,0.0,0.0,88,0.00,CLR,,0.00,WeatherDisplay:10.37,2013-06-06 13:08:00,
2013-06-06 09:13:00,67.8,64.1,29.32,East,97,2.3,2.3,88,0.00,CLR,,0.00,WeatherDisplay:10.37,2013-06-06 13:13:00,
2013-06-06 09:18:00,68.1,64.1,29.32,ESE,104,1.1,0.0,87,0.00,CLR,,0.00,WeatherDisplay:10.37,2013-06-06 13:18:00,
2013-06-06 09:23:00,68.4,64.4,29.32,ESE,114,5.8,5.8,87,0.00,CLR,,0.00,WeatherDisplay:10.37,2013-06-06 13:23:00,
2013-06-06 09:28:00,68.8,64.4,29.32,East,88,2.3,2.3,86,0.00,CLR,,0.00,WeatherDisplay:10.37,2013-06-06 13:28:00,
2013-06-06 09:33:00,68.9,64.5,29.32,ENE,65,5.8,5.8,86,0.00,CLR,,0.00,WeatherDisplay:10.37,2013-06-06 13:33:00,
2013-06-06 09:38:00,69.1,64.4,29.32,East,93,4.6,4.6,85,0.00,CLR,,0.00,WeatherDisplay:10.37,2013-06-06 13:38:00,
2013-06-06 09:43:00,69.4,64.7,29.32,ESE,107,3.5,3.5,85,0.00,CLR,,0.00,WeatherDisplay:10.37,2013-06-06 13:43:00,
2013-06-06 09:48:00,69.8,65.1,29.32,East,83,3.5,3.5,85,0.00,CLR,,0.00,WeatherDisplay:10.37,2013-06-06 13:48:00,
2013-06-06 09:53:00,70.1,65.0,29.32,ESE,107,0.0,0.0,84,0.00,CLR,,0.00,WeatherDisplay:10.37,2013-06-06 13:53:00,
2013-06-06 09:58:00,70.1,64.7,29.32,ESE,103,0.0,0.0,83,0.00,CLR,,0.00,WeatherDisplay:10.37,2013-06-06 13:58:00,
2013-06-06 10:03:00,70.4,65.3,29.32,East,96,0.0,0.0,84,0.00,CLR,,0.00,WeatherDisplay:10.37,2013-06-06 14:03:00,
2013-06-06 10:08:00,70.6,65.2,29.32,ESE,109,4.6,4.6,83,0.00,CLR,,0.00,WeatherDisplay:10.37,2013-06-06 14:08:00,
2013-06-06 10:13:00,70.8,65.4,29.31,SE,124,5.8,5.8,83,0.00,CLR,,0.00,WeatherDisplay:10.37,2013-06-06 14:13:00,
2013-06-06 10:18:00,70.8,65.4,29.31,East,88,3.5,3.5,83,0.00,CLR,,0.00,WeatherDisplay:10.37,2013-06-06 14:18:00,
2013-06-06 10:23:00,70.9,65.5,29.31,SE,138,1.1,1.1,83,0.00,CLR,,0.00,WeatherDisplay:10.37,2013-06-06 14:23:00,
2013-06-06 10:28:00,71.1,65.3,29.32,ENE,75,0.0,0.0,82,0.00,CLR,,0.00,WeatherDisplay:10.37,2013-06-06 14:28:00,
2013-06-06 10:33:00,71.3,65.5,29.32,East,96,2.3,2.3,82,0.00,CLR,,0.00,WeatherDisplay:10.37,2013-06-06 14:33:00,
2013-06-06 10:38:00,71.5,65.7,29.32,ESE,107,1.1,1.1,82,0.00,CLR,,0.00,WeatherDisplay:10.37,2013-06-06 14:38:00,
2013-06-06 10:43:00,71.5,65.4,29.31,SSE,154,1.1,0.0,81,0.00,CLR,,0.00,WeatherDisplay:10.37,2013-06-06 14:43:00,
2013-06-06 10:48:00,71.8,65.7,29.31,East,80,0.0,0.0,81,0.00,CLR,,0.00,WeatherDisplay:10.37,2013-06-06 14:48:00,
2013-06-06 10:53:00,72.0,65.8,29.31,East,96,0.0,0.0,81,0.00,CLR,,0.00,WeatherDisplay:10.37,2013-06-06 14:53:00,
2013-06-06 10:58:00,72.0,65.8,29.31,East,83,2.3,2.3,81,0.00,CLR,,0.00,WeatherDisplay:10.37,2013-06-06 14:58:00,
2013-06-06 11:03:00,72.1,65.9,29.31,SE,140,0.0,0.0,81,0.00,CLR,,0.00,WeatherDisplay:10.37,2013-06-06 15:03:00,
2013-06-06 11:08:00,72.1,65.6,29.31,ESE,103,5.8,5.8,80,0.00,CLR,,0.00,WeatherDisplay:10.37,2013-06-06 15:08:00,
2013-06-06 11:13:00,72.1,65.9,29.31,East,97,0.0,0.0,81,0.00,CLR,,0.00,WeatherDisplay:10.37,2013-06-06 15:13:00,
2013-06-06 11:18:00,72.0,65.8,29.31,East,83,3.5,3.5,81,0.00,CLR,,0.00,WeatherDisplay:10.37,2013-06-06 15:18:00,
2013-06-06 11:23:00,71.8,66.0,29.31,SE,138,4.6,4.6,82,0.00,CLR,,0.00,WeatherDisplay:10.37,2013-06-06 15:23:00,
2013-06-06 11:28:00,71.8,66.0,29.31,East,90,0.0,0.0,82,0.00,CLR,,0.00,WeatherDisplay:10.37,2013-06-06 15:28:00,
2013-06-06 11:33:00,71.8,66.0,29.31,SE,128,1.1,0.0,82,0.00,CLR,,0.00,WeatherDisplay:10.37,2013-06-06 15:33:00,
2013-06-06 11:38:00,71.8,66.4,29.31,SE,133,0.0,0.0,83,0.00,CLR,,0.00,WeatherDisplay:10.37,2013-06-06 15:38:00,
2013-06-06 11:43:00,72.1,66.3,29.31,East,93,0.0,0.0,82,0.00,CLR,,0.00,WeatherDisplay:10.37,2013-06-06 15:43:00,
2013-06-06 11:48:00,72.3,66.5,29.31,ESE,102,0.0,0.0,82,0.00,CLR,,0.00,WeatherDisplay:10.37,2013-06-06 15:48:00,
2013-06-06 11:53:00,72.5,66.7,29.31,East,86,1.1,0.0,82,0.00,CLR,,0.00,WeatherDisplay:10.37,2013-06-06 15:53:00,
2013-06-06 11:58:00,72.7,66.5,29.30,West,263,3.5,3.5,81,0.00,CLR,,0.00,WeatherDisplay:10.37,2013-06-06 15:58:00,
2013-06-06 12:03:00,72.7,66.5,29.30,West,260,0.0,0.0,81,0.00,CLR,,0.00,WeatherDisplay:10.37,2013-06-06 16:03:00,
2013-06-06 12:08:00,72.7,66.9,29.30,East,90,1.1,0.0,82,0.00,CLR,,0.00,WeatherDisplay:10.37,2013-06-06 16:08:00,
2013-06-06 12:13:00,72.7,67.2,29.30,ESE,120,3.5,3.5,83,0.00,CLR,,0.00,WeatherDisplay:10.37,2013-06-06 16:13:00,
2013-06-06 12:18:00,72.7,67.2,29.30,ENE,61,0.0,0.0,83,0.00,CLR,,0.00,WeatherDisplay:10.37,2013-06-06 16:18:00,
2013-06-06 12:23:00,72.7,67.2,29.30,ESE,103,4.6,4.6,83,0.00,CLR,,0.00,WeatherDisplay:10.37,2013-06-06 16:23:00,
2013-06-06 12:28:00,72.5,67.0,29.29,East,80,1.1,0.0,83,0.00,CLR,,0.00,WeatherDisplay:10.37,2013-06-06 16:28:00,
2013-06-06 12:33:00,72.5,67.0,29.29,NNW,339,0.0,0.0,83,0.00,CLR,,0.00,WeatherDisplay:10.37,2013-06-06 16:33:00,
2013-06-06 12:38:00,72.8,67.3,29.29,SE,137,4.6,4.6,83,0.00,CLR,,0.00,WeatherDisplay:10.37,2013-06-06 16:38:00,
2013-06-06 12:43:00,73.2,67.4,29.29,ESE,102,0.0,0.3,82,0.00,CLR,,0.00,WeatherDisplay:10.37,2013-06-06 16:43:00,
2013-06-06 12:48:00,73.5,67.7,29.29,East,93,6.9,6.9,82,0.00,CLR,,0.00,WeatherDisplay:10.37,2013-06-06 16:48:00,
2013-06-06 12:53:00,73.3,67.1,29.29,ENE,76,4.6,4.6,81,0.00,CLR,,0.00,WeatherDisplay:10.37,2013-06-06 16:53:00,
2013-06-06 12:59:00,73.3,67.1,29.28,ENE,72,1.1,0.0,81,0.00,CLR,,0.00,WeatherDisplay:10.37,2013-06-06 16:59:00,
2013-06-06 13:04:00,73.3,67.5,29.28,ESE,106,0.0,0.1,82,0.00,CLR,,0.00,WeatherDisplay:10.37,2013-06-06 17:04:00,
2013-06-06 13:09:00,73.5,67.7,29.28,ENE,64,0.0,0.0,82,0.00,CLR,,0.00,WeatherDisplay:10.37,2013-06-06 17:09:00,
2013-06-06 13:14:00,73.7,67.5,29.27,SSE,160,3.5,3.5,81,0.00,CLR,,0.00,WeatherDisplay:10.37,2013-06-06 17:14:00,
2013-06-06 13:19:00,73.9,67.7,29.27,ESE,106,1.1,1.5,81,0.00,CLR,,0.00,WeatherDisplay:10.37,2013-06-06 17:19:00,
2013-06-06 13:24:00,73.9,67.7,29.27,ESE,121,0.0,0.5,81,0.00,CLR,,0.00,WeatherDisplay:10.37,2013-06-06 17:24:00,
2013-06-06 13:29:00,73.3,67.5,29.27,ENE,65,1.1,0.0,82,0.00,CLR,,0.00,WeatherDisplay:10.37,2013-06-06 17:29:00,
2013-06-06 13:34:00,73.2,68.1,29.27,NE,48,0.0,0.0,84,0.00,CLR,,0.00,WeatherDisplay:10.37,2013-06-06 17:34:00,
2013-06-06 13:39:00,73.0,68.2,29.27,SE,138,4.6,4.6,85,0.00,CLR,,0.00,WeatherDisplay:10.37,2013-06-06 17:39:00,
2013-06-06 13:44:00,73.0,68.6,29.26,ESE,120,3.5,0.0,86,0.00,CLR,,0.00,WeatherDisplay:10.37,2013-06-06 17:44:00,
2013-06-06 13:49:00,73.2,69.1,29.26,SE,124,2.0,2.0,87,0.00,CLR,,0.00,WeatherDisplay:10.37,2013-06-06 17:49:00,
2013-06-06 13:54:00,73.2,69.1,29.26,ESE,104,3.5,3.5,87,0.00,CLR,,0.00,WeatherDisplay:10.37,2013-06-06 17:54:00,
2013-06-06 13:59:00,73.2,69.1,29.25,East,99,3.5,3.5,87,0.00,CLR,,0.00,WeatherDisplay:10.37,2013-06-06 17:59:00,
2013-06-06 14:04:00,73.0,68.9,29.25,ESE,106,1.1,1.1,87,0.00,CLR,,0.00,WeatherDisplay:10.37,2013-06-06 18:04:00,
2013-06-06 14:09:00,73.0,68.9,29.25,ESE,112,6.9,6.9,87,0.00,CLR,,0.00,WeatherDisplay:10.37,2013-06-06 18:09:00,
2013-06-06 14:14:00,72.8,69.0,29.25,ESE,102,0.0,0.0,88,0.00,CLR,,0.01,WeatherDisplay:10.37,2013-06-06 18:14:00,
2013-06-06 14:19:00,72.7,69.3,29.25,East,86,0.0,0.9,89,0.02,RA,,0.02,WeatherDisplay:10.37,2013-06-06 18:19:00,
2013-06-06 14:24:00,72.5,69.4,29.25,East,97,0.0,0.0,90,0.02,RA,,0.02,WeatherDisplay:10.37,2013-06-06 18:24:00,
2013-06-06 14:29:00,72.5,69.7,29.25,SE,136,0.0,0.0,91,0.02,,,0.02,WeatherDisplay:10.37,2013-06-06 18:29:00,
2013-06-06 14:34:00,72.5,69.7,29.25,SW,233,1.1,1.1,91,0.04,RA,,0.05,WeatherDisplay:10.37,2013-06-06 18:34:00,
2013-06-06 14:39:00,72.0,69.5,29.25,East,83,0.0,0.0,92,0.07,RA,,0.07,WeatherDisplay:10.37,2013-06-06 18:39:00,
2013-06-06 14:44:00,71.8,69.3,29.25,East,82,0.0,0.0,92,0.08,RA,,0.09,WeatherDisplay:10.37,2013-06-06 18:44:00,
2013-06-06 14:49:00,71.8,69.7,29.25,ESE,102,0.0,0.1,93,0.12,RA,,0.12,WeatherDisplay:10.37,2013-06-06 18:49:00,
2013-06-06 14:54:00,71.6,69.5,29.25,East,100,3.5,0.0,93,0.16,RA,,0.17,WeatherDisplay:10.37,2013-06-06 18:54:00,
2013-06-06 14:59:00,71.5,69.4,29.24,West,281,2.3,0.0,93,0.18,RA,,0.18,WeatherDisplay:10.37,2013-06-06 18:59:00,
2013-06-06 15:04:00,71.1,69.3,29.24,NNE,25,0.0,0.0,94,0.19,RA,,0.19,WeatherDisplay:10.37,2013-06-06 19:04:00,
2013-06-06 15:09:00,71.1,69.3,29.24,WSW,250,3.5,3.5,94,0.20,RA,,0.21,WeatherDisplay:10.37,2013-06-06 19:09:00,
2013-06-06 15:14:00,71.1,69.3,29.24,East,79,0.0,1.8,94,0.24,RA,,0.24,WeatherDisplay:10.37,2013-06-06 19:14:00,
2013-06-06 15:19:00,71.3,69.8,29.24,East,97,1.1,1.1,95,0.22,RA,,0.24,WeatherDisplay:10.37,2013-06-06 19:19:00,
2013-06-06 15:24:00,71.5,70.0,29.24,East,95,3.5,3.5,95,0.22,CLR,,0.24,WeatherDisplay:10.37,2013-06-06 19:24:00,
2013-06-06 15:29:00,71.8,70.3,29.23,ESE,107,0.0,0.0,95,0.22,CLR,,0.24,WeatherDisplay:10.37,2013-06-06 19:29:00,
2013-06-06 15:34:00,72.1,70.9,29.23,ESE,120,0.0,1.1,96,0.20,CLR,,0.24,WeatherDisplay:10.37,2013-06-06 19:34:00,
2013-06-06 15:39:00,72.3,71.1,29.23,East,85,3.5,3.5,96,0.17,CLR,,0.24,WeatherDisplay:10.37,2013-06-06 19:39:00,
2013-06-06 15:44:00,72.3,71.1,29.22,ENE,66,2.0,2.0,96,0.16,CLR,,0.24,WeatherDisplay:10.37,2013-06-06 19:44:00,
2013-06-06 15:49:00,72.3,71.1,29.22,NE,52,0.0,0.5,96,0.12,CLR,,0.24,WeatherDisplay:10.37,2013-06-06 19:49:00,
2013-06-06 15:54:00,72.3,71.1,29.22,ESE,123,0.0,0.0,96,0.08,CLR,,0.24,WeatherDisplay:10.37,2013-06-06 19:54:00,
2013-06-06 15:59:00,72.3,71.1,29.22,ESE,114,1.1,1.1,96,0.06,CLR,,0.24,WeatherDisplay:10.37,2013-06-06 19:59:00,
2013-06-06 16:04:00,72.3,71.1,29.22,East,90,2.3,0.0,96,0.05,CLR,,0.24,WeatherDisplay:10.37,2013-06-06 20:04:00,
2013-06-06 16:09:00,72.3,71.1,29.22,East,89,0.0,0.0,96,0.03,CLR,,0.24,WeatherDisplay:10.37,2013-06-06 20:09:00,
2013-06-06 16:14:00,72.5,71.6,29.21,SE,124,4.6,4.6,97,0.00,CLR,,0.24,WeatherDisplay:10.37,2013-06-06 20:14:00,
2013-06-06 16:19:00,72.3,71.1,29.21,ENE,66,5.8,5.8,96,0.00,CLR,,0.24,WeatherDisplay:10.37,2013-06-06 20:19:00,
2013-06-06 16:24:00,72.3,71.1,29.21,NE,47,2.3,2.3,96,0.00,CLR,,0.24,WeatherDisplay:10.37,2013-06-06 20:24:00,
2013-06-06 16:29:00,72.1,70.9,29.21,South,185,0.0,0.0,96,0.00,CLR,,0.24,WeatherDisplay:10.37,2013-06-06 20:29:00,
2013-06-06 16:34:00,72.3,71.1,29.21,East,92,1.0,0.0,96,0.00,CLR,,0.24,WeatherDisplay:10.37,2013-06-06 20:34:00,
2013-06-06 16:39:00,72.5,71.6,29.21,East,97,0.0,0.0,97,0.00,CLR,,0.24,WeatherDisplay:10.37,2013-06-06 20:39:00,
2013-06-06 16:44:00,72.5,71.6,29.20,ESE,110,0.0,0.0,97,0.00,CLR,,0.24,WeatherDisplay:10.37,2013-06-06 20:44:00,
2013-06-06 16:49:00,72.7,71.8,29.20,ESE,106,0.0,0.0,97,0.00,CLR,,0.24,WeatherDisplay:10.37,2013-06-06 20:49:00,
2013-06-06 16:54:00,72.8,71.9,29.20,WSW,247,0.0,0.0,97,0.00,CLR,,0.24,WeatherDisplay:10.37,2013-06-06 20:54:00,
2013-06-06 16:59:00,73.0,72.1,29.20,ESE,110,0.0,0.0,97,0.00,CLR,,0.24,WeatherDisplay:10.37,2013-06-06 20:59:00,
2013-06-06 17:04:00,73.0,72.1,29.20,ENE,75,3.5,3.5,97,0.00,CLR,,0.24,WeatherDisplay:10.37,2013-06-06 21:04:00,
2013-06-06 17:09:00,72.8,71.6,29.20,ESE,107,0.0,0.0,96,0.00,CLR,,0.24,WeatherDisplay:10.37,2013-06-06 21:09:00,
2013-06-06 17:14:00,72.7,71.5,29.20,East,79,0.0,0.0,96,0.00,CLR,,0.24,WeatherDisplay:10.37,2013-06-06 21:14:00,
2013-06-06 17:19:00,72.5,71.3,29.20,NE,45,2.3,2.3,96,0.00,CLR,,0.24,WeatherDisplay:10.37,2013-06-06 21:19:00,
2013-06-06 17:24:00,72.3,71.1,29.20,ENE,78,1.1,1.1,96,0.00,CLR,,0.24,WeatherDisplay:10.37,2013-06-06 21:24:00,
2013-06-06 17:29:00,72.3,71.1,29.20,ENE,58,1.1,1.1,96,0.00,CLR,,0.24,WeatherDisplay:10.37,2013-06-06 21:29:00,
2013-06-06 17:34:00,72.1,70.9,29.20,SE,131,3.5,3.5,96,0.00,CLR,,0.24,WeatherDisplay:10.37,2013-06-06 21:34:00,
2013-06-06 17:39:00,72.1,70.9,29.20,ENE,72,0.0,0.0,96,0.00,CLR,,0.24,WeatherDisplay:10.37,2013-06-06 21:39:00,
2013-06-06 17:44:00,72.1,70.9,29.20,East,83,0.0,0.0,96,0.00,CLR,,0.24,WeatherDisplay:10.37,2013-06-06 21:44:00,
2013-06-06 17:49:00,72.1,70.9,29.20,ESE,107,0.0,0.0,96,0.00,CLR,,0.24,WeatherDisplay:10.37,2013-06-06 21:49:00,
2013-06-06 17:54:00,72.1,70.9,29.20,East,83,0.0,0.0,96,0.00,CLR,,0.24,WeatherDisplay:10.37,2013-06-06 21:54:00,
2013-06-06 17:59:00,72.1,70.9,29.19,East,92,0.0,0.0,96,0.00,CLR,,0.24,WeatherDisplay:10.37,2013-06-06 21:59:00,
2013-06-06 18:04:00,72.1,70.9,29.19,North,11,0.0,0.0,96,0.00,CLR,,0.24,WeatherDisplay:10.37,2013-06-06 22:04:00,
2013-06-06 18:09:00,72.1,70.9,29.19,SE,134,0.0,0.0,96,0.00,CLR,,0.24,WeatherDisplay:10.37,2013-06-06 22:09:00,
2013-06-06 18:14:00,72.1,70.9,29.19,East,89,2.3,0.0,96,0.01,RA,,0.25,WeatherDisplay:10.37,2013-06-06 22:14:00,
2013-06-06 18:19:00,72.1,71.2,29.19,ESE,117,0.0,0.0,97,0.02,RA,,0.26,WeatherDisplay:10.37,2013-06-06 22:19:00,
2013-06-06 18:24:00,72.1,71.2,29.19,ESE,117,3.5,3.5,97,0.03,RA,,0.27,WeatherDisplay:10.37,2013-06-06 22:24:00,
2013-06-06 18:29:00,72.0,71.1,29.19,ESE,112,3.5,3.5,97,0.04,RA,,0.28,WeatherDisplay:10.37,2013-06-06 22:29:00,
2013-06-06 18:34:00,72.0,71.1,29.19,East,100,0.0,0.0,97,0.04,RA,,0.28,WeatherDisplay:10.37,2013-06-06 22:34:00,
2013-06-06 18:39:00,72.0,71.1,29.19,East,100,0.0,0.0,97,0.04,CLR,,0.28,WeatherDisplay:10.37,2013-06-06 22:39:00,
2013-06-06 18:44:00,71.8,70.9,29.19,ESE,109,1.1,1.1,97,0.05,RA,,0.29,WeatherDisplay:10.37,2013-06-06 22:44:00,
2013-06-06 18:49:00,71.8,70.9,29.19,ESE,103,2.3,2.3,97,0.11,RA,,0.35,WeatherDisplay:10.37,2013-06-06 22:49:00,
2013-06-06 18:54:00,71.6,70.7,29.19,ENE,78,4.6,4.6,97,0.16,RA,,0.40,WeatherDisplay:10.37,2013-06-06 22:54:00,
2013-06-06 18:59:00,71.5,70.6,29.19,WNW,291,0.0,0.0,97,0.19,RA,,0.43,WeatherDisplay:10.37,2013-06-06 22:59:00,
2013-06-06 19:04:00,71.5,70.6,29.19,West,281,0.0,0.0,97,0.23,RA,,0.47,WeatherDisplay:10.37,2013-06-06 23:04:00,
2013-06-06 19:09:00,71.3,70.4,29.19,South,182,1.1,1.1,97,0.25,RA,,0.49,WeatherDisplay:10.37,2013-06-06 23:09:00,
2013-06-06 19:14:00,71.3,70.7,29.19,East,99,0.0,0.0,98,0.25,RA,,0.50,WeatherDisplay:10.37,2013-06-06 23:14:00,
2013-06-06 19:19:00,71.3,70.7,29.19,East,100,1.1,0.0,98,0.24,RA,,0.50,WeatherDisplay:10.37,2013-06-06 23:19:00,
2013-06-06 19:24:00,71.3,70.7,29.19,NE,40,2.3,2.3,98,0.23,CLR,,0.50,WeatherDisplay:10.37,2013-06-06 23:24:00,
2013-06-06 19:29:00,71.3,70.7,29.19,NE,40,0.0,0.0,98,0.22,CLR,,0.50,WeatherDisplay:10.37,2013-06-06 23:29:00,
2013-06-06 19:34:00,71.3,70.7,29.19,SSE,162,4.6,0.0,98,0.22,CLR,,0.50,WeatherDisplay:10.37,2013-06-06 23:34:00,
2013-06-06 19:39:00,71.1,70.5,29.19,East,79,0.0,0.0,98,0.22,CLR,,0.50,WeatherDisplay:10.37,2013-06-06 23:39:00,
2013-06-06 19:44:00,71.1,70.5,29.19,East,79,0.0,0.0,98,0.21,CLR,,0.50,WeatherDisplay:10.37,2013-06-06 23:44:00,
2013-06-06 19:49:00,71.1,70.5,29.19,East,89,0.0,0.2,98,0.15,CLR,,0.50,WeatherDisplay:10.37,2013-06-06 23:49:00,
2013-06-06 19:54:00,71.1,70.5,29.19,East,89,0.0,0.0,98,0.10,CLR,,0.50,WeatherDisplay:10.37,2013-06-06 23:54:00,
2013-06-06 19:59:00,70.9,70.3,29.19,SW,230,3.5,3.5,98,0.07,CLR,,0.50,WeatherDisplay:10.37,2013-06-06 23:59:00,
2013-06-06 20:04:00,70.9,70.3,29.19,SW,224,0.0,0.0,98,0.03,CLR,,0.50,WeatherDisplay:10.37,2013-06-07 00:04:00,
2013-06-06 20:09:00,70.9,70.3,29.19,South,174,1.0,1.0,98,0.01,CLR,,0.50,WeatherDisplay:10.37,2013-06-07 00:09:00,
2013-06-06 20:14:00,70.9,70.3,29.19,South,179,2.3,2.3,98,0.00,CLR,,0.50,WeatherDisplay:10.37,2013-06-07 00:14:00,
2013-06-06 20:19:00,70.8,70.2,29.19,SW,236,0.0,0.0,98,0.00,CLR,,0.50,WeatherDisplay:10.37,2013-06-07 00:19:00,
2013-06-06 20:24:00,70.8,70.2,29.19,SW,236,0.0,0.0,98,0.00,CLR,,0.50,WeatherDisplay:10.37,2013-06-07 00:24:00,
2013-06-06 20:29:00,70.8,70.2,29.20,ENE,75,0.0,0.0,98,0.00,CLR,,0.50,WeatherDisplay:10.37,2013-06-07 00:29:00,
2013-06-06 20:34:00,70.8,70.2,29.20,ENE,76,0.0,0.0,98,0.00,CLR,,0.50,WeatherDisplay:10.37,2013-06-07 00:34:00,
2013-06-06 20:39:00,70.8,70.2,29.20,SW,220,0.0,0.7,98,0.00,CLR,,0.50,WeatherDisplay:10.37,2013-06-07 00:39:00,
2013-06-06 20:44:00,70.8,70.5,29.20,SW,220,0.0,0.0,99,0.00,CLR,,0.50,WeatherDisplay:10.37,2013-06-07 00:44:00,
2013-06-06 20:49:00,70.8,70.5,29.20,ESE,120,2.3,2.3,99,0.00,CLR,,0.50,WeatherDisplay:10.37,2013-06-07 00:49:00,
2013-06-06 20:54:00,70.8,70.5,29.20,SSE,167,5.8,5.8,99,0.00,CLR,,0.50,WeatherDisplay:10.37,2013-06-07 00:54:00,
2013-06-06 20:59:00,70.8,70.5,29.20,NE,41,2.3,2.3,99,0.00,CLR,,0.50,WeatherDisplay:10.37,2013-06-07 00:59:00,
2013-06-06 21:04:00,70.6,70.3,29.20,SW,223,2.3,2.3,99,0.00,CLR,,0.50,WeatherDisplay:10.37,2013-06-07 01:04:00,
2013-06-06 21:09:00,70.6,70.3,29.20,SW,223,0.0,0.0,99,0.00,CLR,,0.50,WeatherDisplay:10.37,2013-06-07 01:09:00,
2013-06-06 21:14:00,70.6,70.3,29.20,ESE,112,3.5,0.0,99,0.00,CLR,,0.50,WeatherDisplay:10.37,2013-06-07 01:14:00,
2013-06-06 21:19:00,70.4,70.1,29.20,South,179,0.0,0.0,99,0.00,CLR,,0.50,WeatherDisplay:10.37,2013-06-07 01:19:00,
2013-06-06 21:24:00,70.4,70.1,29.20,SW,234,5.8,5.8,99,0.00,CLR,,0.50,WeatherDisplay:10.37,2013-06-07 01:24:00,
2013-06-06 21:29:00,70.3,69.7,29.20,SW,215,3.5,3.5,98,0.00,CLR,,0.50,WeatherDisplay:10.37,2013-06-07 01:29:00,
2013-06-06 21:34:00,70.3,69.7,29.20,WSW,237,3.5,3.5,98,0.00,CLR,,0.50,WeatherDisplay:10.37,2013-06-07 01:34:00,
2013-06-06 21:39:00,70.1,69.5,29.20,WSW,254,3.5,3.5,98,0.00,CLR,,0.50,WeatherDisplay:10.37,2013-06-07 01:39:00,
2013-06-06 21:44:00,70.1,69.8,29.21,SSW,213,0.0,0.0,99,0.00,CLR,,0.50,WeatherDisplay:10.37,2013-06-07 01:44:00,
2013-06-06 21:49:00,70.1,69.8,29.21,WSW,237,2.3,2.3,99,0.00,CLR,,0.50,WeatherDisplay:10.37,2013-06-07 01:49:00,
2013-06-06 21:54:00,70.1,69.8,29.21,WSW,256,2.3,2.3,99,0.00,CLR,,0.50,WeatherDisplay:10.37,2013-06-07 01:54:00,
2013-06-06 21:59:00,69.9,69.6,29.22,WNW,289,4.6,4.6,99,0.00,CLR,,0.50,WeatherDisplay:10.37,2013-06-07 01:59:00,
2013-06-06 22:04:00,69.9,69.6,29.22,SSW,205,6.9,0.0,99,0.00,CLR,,0.50,WeatherDisplay:10.37,2013-06-07 02:04:00,
2013-06-06 22:09:00,69.9,69.6,29.22,WSW,254,2.3,2.3,99,0.00,CLR,,0.50,WeatherDisplay:10.37,2013-06-07 02:09:00,
2013-06-06 22:15:00,69.8,69.5,29.22,WSW,246,6.0,6.0,99,0.00,CLR,,0.50,WeatherDisplay:10.37,2013-06-07 02:15:00,
2013-06-06 22:20:00,69.8,69.5,29.22,SW,236,1.1,1.1,99,0.00,CLR,,0.50,WeatherDisplay:10.37,2013-06-07 02:20:00,
2013-06-06 22:25:00,69.8,69.5,29.22,WSW,250,3.5,3.5,99,0.00,CLR,,0.50,WeatherDisplay:10.37,2013-06-07 02:25:00,
2013-06-06 22:30:00,69.8,69.5,29.22,SSE,168,0.0,0.0,99,0.00,CLR,,0.50,WeatherDisplay:10.37,2013-06-07 02:30:00,
2013-06-06 22:35:00,69.6,69.3,29.22,WSW,257,4.6,0.0,99,0.00,CLR,,0.50,WeatherDisplay:10.37,2013-06-07 02:35:00,
2013-06-06 22:40:00,69.6,69.3,29.22,WSW,243,2.3,2.3,99,0.00,CLR,,0.50,WeatherDisplay:10.37,2013-06-07 02:40:00,
2013-06-06 22:45:00,69.6,69.3,29.22,SW,233,0.0,0.0,99,0.00,CLR,,0.50,WeatherDisplay:10.37,2013-06-07 02:45:00,
2013-06-06 22:50:00,69.4,69.1,29.22,SW,233,4.6,4.6,99,0.00,CLR,,0.50,WeatherDisplay:10.37,2013-06-07 02:50:00,
2013-06-06 22:55:00,69.4,69.1,29.22,SW,232,1.1,1.1,99,0.00,CLR,,0.50,WeatherDisplay:10.37,2013-06-07 02:55:00,
2013-06-06 23:00:00,69.4,69.1,29.22,WSW,241,3.0,3.0,99,0.00,CLR,,0.50,WeatherDisplay:10.37,2013-06-07 03:00:00,
2013-06-06 23:05:00,69.4,69.1,29.22,WSW,244,3.5,3.5,99,0.00,CLR,,0.50,WeatherDisplay:10.37,2013-06-07 03:05:00,
2013-06-06 23:10:00,69.3,69.0,29.22,WSW,240,3.5,3.5,99,0.00,CLR,,0.50,WeatherDisplay:10.37,2013-06-07 03:10:00,
2013-06-06 23:15:00,69.3,69.0,29.22,WSW,240,0.0,0.0,99,0.00,CLR,,0.50,WeatherDisplay:10.37,2013-06-07 03:15:00,
2013-06-06 23:20:00,69.3,69.0,29.22,WSW,240,0.0,0.0,99,0.00,CLR,,0.50,WeatherDisplay:10.37,2013-06-07 03:20:00,
2013-06-06 23:25:00,69.3,69.0,29.22,WSW,240,0.0,0.0,99,0.00,CLR,,0.50,WeatherDisplay:10.37,2013-06-07 03:25:00,
2013-06-06 23:30:00,69.1,68.8,29.22,WSW,243,2.3,2.3,99,0.00,CLR,,0.50,WeatherDisplay:10.37,2013-06-07 03:30:00,
2013-06-06 23:35:00,69.1,68.8,29.22,WSW,243,0.0,0.0,99,0.00,CLR,,0.50,WeatherDisplay:10.37,2013-06-07 03:35:00,
2013-06-06 23:40:00,69.1,68.8,29.22,WSW,243,0.0,0.0,99,0.00,CLR,,0.50,WeatherDisplay:10.37,2013-06-07 03:40:00,
2013-06-06 23:45:00,69.1,68.8,29.22,WSW,243,0.0,0.0,99,0.00,CLR,,0.50,WeatherDisplay:10.37,2013-06-07 03:45:00,
2013-06-06 23:50:00,68.9,68.6,29.22,WSW,243,0.0,0.0,99,0.00,CLR,,0.50,WeatherDisplay:10.37,2013-06-07 03:50:00,
2013-06-06 23:55:00,68.9,68.6,29.22,WSW,243,0.0,0.0,99,0.00,CLR,,0.50,WeatherDisplay:10.37,2013-06-07 03:55:00,